{"data":{"norad_id":61771,"epoch":"2026-05-25T03:41:36.642912Z","epoch_age_seconds":61420,"freshness":"FRESH","line1":"1 61771U 24199AN  26145.15389633  .00042731  00000+0  61714-3 0  9991","line2":"2 61771  97.2969  20.5328 0008093  31.6838 328.4903 15.55805368130846","mean_motion":15.55805368,"eccentricity":0.0008093,"inclination_deg":97.2969,"raan_deg":20.5328,"arg_perigee_deg":31.6838,"mean_anomaly_deg":328.4903,"bstar":0.00061714,"rev_number":13084,"period_min":92.556564568943,"perigee_km":394.32713939165,"apogee_km":405.2979285073,"semimajor_km":6777.9495339495,"source":"CELESTRAK","updated_at":"2026-05-25T13:38:02.559095Z"}}